Oxnard, CA

10:39 PM PST on February 22, 2017 (GMT -0800)
Oxnard

Weather History for KOXR - June, 2014

Change the Weather History Date:

Tuesday, June 10, 2014

  Actual Average Record
Temperature  
Mean Temperature 64 °F -  
Max Temperature 68 °F 71 °F 95 °F (1979)
Min Temperature 61 °F 55 °F 44 °F (1961)
Degree Days  
Heating Degree Days 2    
Growing Degree Days 14 (Base 50)    
Moisture  
Dew Point 58 °F    
Average Humidity 80    
Maximum Humidity 90    
Minimum Humidity 70    
Precipitation  
Precipitation 0.00 in - - ()
Sea Level Pressure  
Sea Level Pressure 29.83 in    
Wind  
Wind Speed 4 mph (SW)    
Max Wind Speed 8 mph    
Max Gust Speed -    
Visibility 9 miles    
Events      
Averages and records for this station are not official NWS values.
T = Trace of Precipitation, MM = Missing Value Source: NWS Daily Summary

Daily Weather History Graph

Daily Weather History Graph

Search for Another Location

Airport or City:

Trip Planner

Search our weather history database for the weather conditions in past years. The results will help you decide how hot, cold, wet, or windy it might be!

Date:

Astronomy

Jun. 10, 2014 Rise Set
Actual Time 5:44 AM PDT 8:08 PM PDT
Civil Twilight 5:15 AM PDT 8:37 PM PDT
Nautical Twilight 4:39 AM PDT 9:13 PM PDT
Astronomical Twilight 4:00 AM PDT 9:52 PM PDT
Moon 5:44 PM PDT (6/10) 3:46 AM PDT (6/10)
Length of Visible Light 15h 22m
Length of Day
14h 23m
Waxing Gibbous, 93% of the Moon is Illuminated
Jun 10
Waxing Gibbous
Jun 12
Full
Jun 19
Last Quarter
Jun 27
New
Jul 5
First Quarter

Hourly Weather History & Observations

Time (PDT) Temp. Dew Point Humidity Pressure Visibility Wind Dir Wind Speed Gust Speed Precip Events Conditions
12:51 AM 62.1 °F 57.9 °F 86% 29.80 in 8.0 mi Variable 4.6 mph - N/A   Overcast
1:51 AM 62.1 °F 57.9 °F 86% 29.79 in 9.0 mi Calm Calm - N/A   Overcast
2:51 AM 61.0 °F 57.0 °F 87% 29.78 in 10.0 mi SW 3.5 mph - N/A   Overcast
3:51 AM 61.0 °F 57.0 °F 87% 29.78 in 9.0 mi WSW 3.5 mph - N/A   Overcast
4:51 AM 61.0 °F 57.9 °F 90% 29.78 in 8.0 mi SSW 4.6 mph - N/A   Overcast
6:51 AM 62.1 °F 57.9 °F 86% 29.79 in 8.0 mi Calm Calm - N/A   Overcast
7:51 AM 62.1 °F 57.9 °F 86% 29.80 in 10.0 mi Calm Calm - N/A   Overcast
8:11 AM 62.6 °F 57.2 °F 82% 29.81 in 10.0 mi South 4.6 mph - N/A   Overcast
8:51 AM 63.0 °F 57.9 °F 84% 29.82 in 8.0 mi Calm Calm - N/A   Overcast
11:25 AM 64.4 °F 60.8 °F 88% 29.84 in 5.0 mi South 5.8 mph - N/A   Overcast
12:51 PM 64.9 °F 57.9 °F 78% 29.85 in 10.0 mi SSW 6.9 mph - N/A   Overcast
12:57 PM 64.4 °F 57.2 °F 77% 29.85 in 10.0 mi WSW 6.9 mph - N/A   Overcast
1:51 PM 64.9 °F 57.9 °F 78% 29.84 in 10.0 mi SW 8.1 mph - N/A   Overcast
2:51 PM 66.0 °F 57.9 °F 75% 29.84 in 10.0 mi WSW 5.8 mph - N/A   Overcast
3:03 PM 66.2 °F 57.2 °F 73% 29.84 in 10.0 mi WSW 8.1 mph - N/A   Overcast
3:51 PM 66.9 °F 57.0 °F 70% 29.83 in 10.0 mi WSW 6.9 mph - N/A   Overcast
4:51 PM 66.9 °F 57.0 °F 70% 29.83 in 10.0 mi Variable 5.8 mph - N/A   Mostly Cloudy
5:51 PM 66.0 °F 57.0 °F 73% 29.82 in 10.0 mi Variable 5.8 mph - N/A   Overcast
6:51 PM 64.9 °F 57.9 °F 78% 29.83 in 10.0 mi WSW 6.9 mph - N/A   Overcast
6:55 PM 64.4 °F 57.2 °F 77% 29.83 in 10.0 mi WSW 5.8 mph - N/A   Overcast
7:47 PM 64.4 °F 57.2 °F 77% 29.84 in 10.0 mi North - - N/A   Overcast
8:51 PM 64.0 °F 57.0 °F 78% 29.86 in 10.0 mi WSW 3.5 mph - N/A   Overcast
9:51 PM 64.9 °F 57.0 °F 75% 29.88 in 10.0 mi SSW 3.5 mph - N/A   Overcast
10:51 PM 64.0 °F 57.0 °F 78% 29.89 in 10.0 mi South 4.6 mph - N/A   Overcast
11:51 PM 63.0 °F 57.0 °F 81% 29.90 in 10.0 mi SSW 8.1 mph - N/A   Overcast